• în Republica Moldova
  • Lista ţărilor
  • Pe 7 zile
  • Temperatura apei
  • Hartă satelitară
  • Meteo pe hartă
  • Widget-uri
  • user-avatar
    Intrare

    Meteo pe oră la Andryushkovo

    Astăzi, 25 Mai, Vineri

    Timp Temperatura Precipitaţii Vânt Presiune Umiditate
    00:00 +13°C° 0 mm 3 m/s 746 mmHg 83%
    01:00 +13°C° 0 mm 4 m/s 746 mmHg 86%
    02:00 +12°C° 0 mm 4 m/s 746 mmHg 89%
    03:00 +11°C° 0 mm 3 m/s 746 mmHg 95%
    04:00 +12°C° 0 mm 3 m/s 747 mmHg 94%
    05:00 +12°C° 0 mm 4 m/s 747 mmHg 92%
    06:00 +12°C° 0 mm 5 m/s 747 mmHg 91%
    07:00 +13°C° 0 mm 5 m/s 747 mmHg 84%
    08:00 +14°C° 0 mm 5 m/s 748 mmHg 77%
    09:00 +15°C° 0 mm 6 m/s 748 mmHg 71%
    10:00 +16°C° 0 mm 6 m/s 748 mmHg 65%
    11:00 +17°C° 0 mm 6 m/s 748 mmHg 59%
    12:00 +17°C° 0 mm 6 m/s 749 mmHg 53%
    13:00 +17°C° 0 mm 6 m/s 749 mmHg 51%
    14:00 +19°C° 0 mm 6 m/s 749 mmHg 50%
    15:00 +19°C° 0 mm 6 m/s 749 mmHg 49%
    16:00 +17°C° 0 mm 6 m/s 749 mmHg 52%
    17:00 +17°C° 0 mm 5 m/s 750 mmHg 55%
    18:00 +16°C° 0 mm 5 m/s 750 mmHg 58%
    19:00 +15°C° 0 mm 5 m/s 750 mmHg 61%
    20:00 +13°C° 0 mm 4 m/s 751 mmHg 64%
    21:00 +12°C° 0 mm 4 m/s 751 mmHg 67%
    22:00 +11°C° 0 mm 4 m/s 752 mmHg 67%
    23:00 +10°C° 0 mm 4 m/s 752 mmHg 67%

    Mâine, 26 Mai, Sâmbătă

    Timp Temperatura Precipitaţii Vânt Presiune Umiditate
    00:00 +10°C° 0 mm 4 m/s 752 mmHg 67%
    01:00 +9°C° 0 mm 3 m/s 753 mmHg 68%
    02:00 +8°C° 0 mm 3 m/s 753 mmHg 69%
    03:00 +7°C° 0 mm 3 m/s 754 mmHg 70%
    04:00 +7°C° 0 mm 3 m/s 754 mmHg 71%
    05:00 +8°C° 0 mm 3 m/s 755 mmHg 71%
    06:00 +8°C° 0 mm 2 m/s 755 mmHg 72%
    07:00 +10°C° 0 mm 3 m/s 756 mmHg 66%
    08:00 +12°C° 0 mm 3 m/s 756 mmHg 60%
    09:00 +13°C° 0 mm 3 m/s 757 mmHg 53%
    10:00 +14°C° 0 mm 3 m/s 757 mmHg 51%
    11:00 +16°C° 0 mm 3 m/s 756 mmHg 48%
    12:00 +17°C° 0 mm 4 m/s 756 mmHg 46%
    13:00 +17°C° 0 mm 3 m/s 756 mmHg 46%
    14:00 +18°C° 0 mm 3 m/s 756 mmHg 45%
    15:00 +18°C° 0 mm 3 m/s 756 mmHg 45%
    16:00 +18°C° 0 mm 2 m/s 756 mmHg 47%
    17:00 +18°C° 0 mm 2 m/s 756 mmHg 49%
    18:00 +19°C° 0 mm 1 m/s 755 mmHg 50%
    19:00 +16°C° 0 mm 1 m/s 755 mmHg 56%
    20:00 +14°C° 0 mm 1 m/s 755 mmHg 61%
    21:00 +12°C° 0 mm 1 m/s 755 mmHg 66%
    22:00 +11°C° 0 mm 1 m/s 756 mmHg 68%
    23:00 +10°C° 0 mm 2 m/s 756 mmHg 70%

    Poimâine, 27 Mai, Duminică

    Timp Temperatura Precipitaţii Vânt Presiune Umiditate
    00:00 +9°C° 0 mm 2 m/s 756 mmHg 72%
    01:00 +9°C° 0 mm 2 m/s 756 mmHg 74%
    02:00 +8°C° 0 mm 2 m/s 756 mmHg 75%
    03:00 +8°C° 0 mm 2 m/s 756 mmHg 77%
    04:00 +8°C° 0 mm 2 m/s 756 mmHg 77%
    05:00 +9°C° 0 mm 2 m/s 756 mmHg 76%
    06:00 +9°C° 0 mm 2 m/s 756 mmHg 76%
    07:00 +12°C° 0 mm 2 m/s 756 mmHg 71%
    08:00 +14°C° 0 mm 2 m/s 755 mmHg 65%
    09:00 +16°C° 0 mm 3 m/s 755 mmHg 59%
    10:00 +17°C° 0 mm 3 m/s 755 mmHg 56%
    11:00 +18°C° 0 mm 3 m/s 755 mmHg 52%
    12:00 +19°C° 0 mm 3 m/s 754 mmHg 49%
    13:00 +19°C° 0 mm 3 m/s 754 mmHg 49%
    14:00 +20°C° 0 mm 4 m/s 753 mmHg 49%
    15:00 +20°C° 0 mm 4 m/s 752 mmHg 50%
    16:00 +20°C° 0 mm 4 m/s 752 mmHg 53%
    17:00 +20°C° 0 mm 4 m/s 751 mmHg 57%
    18:00 +19°C° 0 mm 3 m/s 751 mmHg 60%
    19:00 +18°C° 0 mm 3 m/s 750 mmHg 66%
    20:00 +16°C° 0 mm 3 m/s 750 mmHg 71%
    21:00 +13°C° 0 mm 3 m/s 750 mmHg 76%
    22:00 +13°C° 0 mm 3 m/s 750 mmHg 77%
    23:00 +12°C° 0 mm 3 m/s 750 mmHg 78%

    28 Mai, Luni

    Timp Temperatura Precipitaţii Vânt Presiune Umiditate
    00:00 +12°C° 0 mm 3 m/s 750 mmHg 79%
    01:00 +11°C° 0 mm 3 m/s 750 mmHg 83%
    02:00 +11°C° 0 mm 3 m/s 751 mmHg 86%
    03:00 +12°C° 0 mm 2 m/s 751 mmHg 90%
    04:00 +11°C° 0 mm 3 m/s 751 mmHg 88%
    05:00 +11°C° 0 mm 3 m/s 751 mmHg 86%
    06:00 +11°C° 0 mm 3 m/s 752 mmHg 84%
    07:00 +13°C° 0 mm 3 m/s 752 mmHg 76%
    08:00 +14°C° 0 mm 3 m/s 752 mmHg 67%
    09:00 +17°C° 0 mm 3 m/s 752 mmHg 58%
    10:00 +18°C° 0 mm 3 m/s 753 mmHg 55%
    11:00 +18°C° 0 mm 3 m/s 753 mmHg 52%
    12:00 +19°C° 0 mm 3 m/s 753 mmHg 49%
    13:00 +19°C° 0 mm 3 m/s 753 mmHg 48%
    14:00 +20°C° 0 mm 3 m/s 753 mmHg 48%
    15:00 +20°C° 0 mm 3 m/s 753 mmHg 47%
    16:00 +20°C° 0 mm 3 m/s 753 mmHg 50%
    17:00 +19°C° 0 mm 3 m/s 753 mmHg 52%
    18:00 +19°C° 0 mm 3 m/s 753 mmHg 54%
    19:00 +17°C° 0 mm 3 m/s 753 mmHg 57%
    20:00 +13°C° 0 mm 3 m/s 753 mmHg 61%
    21:00 +11°C° 0 mm 3 m/s 754 mmHg 64%
    22:00 +10°C° 0 mm 2 m/s 754 mmHg 63%
    23:00 +9°C° 0 mm 2 m/s 754 mmHg 63%

    29 Mai, Marţi

    Timp Temperatura Precipitaţii Vânt Presiune Umiditate
    00:00 +8°C° 0 mm 2 m/s 754 mmHg 63%
    01:00 +8°C° 0 mm 2 m/s 755 mmHg 63%
    02:00 +8°C° 0 mm 1 m/s 755 mmHg 63%
    03:00 +8°C° 0 mm 1 m/s 755 mmHg 64%
    04:00 +9°C° 0 mm 1 m/s 755 mmHg 64%
    05:00 +10°C° 0 mm 1 m/s 755 mmHg 65%
    06:00 +10°C° 0 mm 1 m/s 755 mmHg 65%
    07:00 +12°C° 0 mm 2 m/s 755 mmHg 61%
    08:00 +14°C° 0 mm 2 m/s 755 mmHg 56%
    09:00 +16°C° 0 mm 3 m/s 755 mmHg 52%
    10:00 +18°C° 0 mm 3 m/s 754 mmHg 50%
    11:00 +19°C° 0 mm 3 m/s 754 mmHg 48%
    12:00 +20°C° 0 mm 4 m/s 754 mmHg 45%
    13:00 +21°C° 0 mm 4 m/s 754 mmHg 46%
    14:00 +22°C° 0 mm 4 m/s 753 mmHg 46%
    15:00 +22°C° 0 mm 4 m/s 753 mmHg 46%
    16:00 +22°C° 0 mm 3 m/s 753 mmHg 50%
    17:00 +22°C° 0 mm 3 m/s 752 mmHg 54%
    18:00 +23°C° 0 mm 2 m/s 752 mmHg 58%
    19:00 +20°C° 0 mm 2 m/s 752 mmHg 63%
    20:00 +18°C° 0 mm 2 m/s 751 mmHg 67%
    21:00 +16°C° 0 mm 2 m/s 751 mmHg 72%
    22:00 +15°C° 0 mm 2 m/s 751 mmHg 73%
    23:00 +14°C° 0 mm 2 m/s 751 mmHg 75%

    30 Mai, Miercuri

    Timp Temperatura Precipitaţii Vânt Presiune Umiditate
    00:00 +13°C° 0 mm 3 m/s 751 mmHg 76%
    01:00 +12°C° 0 mm 3 m/s 750 mmHg 76%
    02:00 +12°C° 0 mm 3 m/s 750 mmHg 76%
    03:00 +11°C° 0 mm 3 m/s 750 mmHg 77%
    04:00 +12°C° 0 mm 3 m/s 750 mmHg 76%
    05:00 +12°C° 0 mm 4 m/s 749 mmHg 76%
    06:00 +13°C° 0 mm 4 m/s 749 mmHg 75%
    07:00 +15°C° 0 mm 5 m/s 748 mmHg 72%
    08:00 +17°C° 0 mm 5 m/s 748 mmHg 69%
    09:00 +20°C° 0 mm 5 m/s 747 mmHg 66%
    10:00 +21°C° 0 mm 6 m/s 747 mmHg 63%
    11:00 +22°C° 0 mm 6 m/s 746 mmHg 60%
    12:00 +24°C° 0 mm 7 m/s 746 mmHg 57%
    13:00 +24°C° 0 mm 7 m/s 745 mmHg 56%
    14:00 +24°C° 0 mm 7 m/s 745 mmHg 55%
    15:00 +26°C° 0 mm 7 m/s 744 mmHg 54%
    16:00 +26°C° 0 mm 6 m/s 744 mmHg 57%
    17:00 +25°C° 0 mm 5 m/s 743 mmHg 61%
    18:00 +25°C° 0 mm 5 m/s 743 mmHg 64%
    19:00 +22°C° 0 mm 4 m/s 743 mmHg 68%
    20:00 +21°C° 0 mm 4 m/s 742 mmHg 72%
    21:00 +19°C° 0 mm 4 m/s 742 mmHg 76%
    22:00 +18°C° 0 mm 4 m/s 742 mmHg 78%
    23:00 +18°C° 0 mm 4 m/s 742 mmHg 79%
    Arată mai mult